Weather History for Pensacola NAS, FL

Change the Weather History Date:

Thursday, April 4, 2013

  Actual Average Record
Temperature  
Mean Temperature 65 °F -  
Max Temperature 73 °F 71 °F 80 °F (2004)
Min Temperature 57 °F 55 °F 44 °F (2005)
Growing Degree Days 15 (Base 50)    
Moisture  
Dew Point 58 °F    
Average Humidity 84    
Maximum Humidity 96    
Minimum Humidity 64    
Precipitation  
Precipitation 0.00 in - - ()
Sea Level Pressure  
Sea Level Pressure 29.90 in    
Wind  
Wind Speed 6 mph (WNW)    
Max Wind Speed 13 mph    
Max Gust Speed 17 mph    
Visibility 9 miles    
Events      
Averages and records for this station are not official NWS values.
T = Trace of Precipitation, MM = Missing Value Source: NWS Daily Summary

Daily Weather History Graph

Daily Weather History Graph

Search for Another Location

Airport:

Trip Planner

Search our weather history database for the weather conditions in past years. The results will help you decide how hot, cold, wet, or windy it might be!

Date:

Astronomy

Apr. 04, 2013 Rise Set
Actual Time 6:34 AM CDT 7:10 PM CDT
Civil Twilight 6:10 AM CDT 7:34 PM CDT
Nautical Twilight 5:41 AM CDT 8:02 PM CDT
Astronomical Twilight 5:12 AM CDT 8:32 PM CDT
Moon 2:37 AM CDT (4/4) 1:50 PM CDT (4/4)
Length of Visible Light 13h 24m
Length of Day
12h 35m
Waning Crescent, 33% of the Moon is Illuminated
Apr 4
Waning Crescent
Apr 10
New
Apr 18
First Quarter
Apr 25
Full
May 2
Last Quarter

Hourly Weather History & Observations

Time (CDT) Temp. Dew Point Humidity Pressure Visibility Wind Dir Wind Speed Gust Speed Precip Events Conditions
12:44 AM 60.8 °F 57.2 °F 88% 29.92 in 10.0 mi NNE 9.2 mph - N/A   Mostly Cloudy
12:56 AM 60.1 °F 57.0 °F 90% 29.93 in 10.0 mi NNE 4.6 mph - N/A   Mostly Cloudy
1:56 AM 59.0 °F 57.0 °F 93% 29.89 in 10.0 mi NE 6.9 mph - N/A   Clear
2:47 AM 59.0 °F 57.2 °F 94% 29.88 in 10.0 mi North 3.5 mph - N/A   Scattered Clouds
2:56 AM 59.0 °F 57.0 °F 93% 29.89 in 10.0 mi NNW 3.5 mph - N/A   Mostly Cloudy
3:56 AM 59.0 °F 57.9 °F 96% 29.89 in 8.0 mi NNW 4.6 mph - N/A   Overcast
4:56 AM 59.0 °F 57.9 °F 96% 29.89 in 8.0 mi Calm Calm - N/A   Overcast
5:56 AM 60.1 °F 57.9 °F 93% 29.91 in 7.0 mi Calm Calm - N/A   Overcast
6:01 AM 60.8 °F 57.2 °F 88% 29.90 in 6.0 mi Calm Calm - N/A   Overcast
6:56 AM 60.1 °F 57.9 °F 93% 29.92 in 5.0 mi Calm Calm - N/A   Mostly Cloudy
7:56 AM 61.0 °F 59.0 °F 93% 29.92 in 5.0 mi NW 4.6 mph - N/A   Overcast
8:56 AM 63.0 °F 60.1 °F 90% 29.93 in 6.0 mi NNW 5.8 mph - N/A   Overcast
9:56 AM 64.0 °F 60.1 °F 87% 29.95 in 9.0 mi WNW 3.5 mph - N/A   Overcast
10:56 AM 64.9 °F 60.1 °F 84% 29.96 in 10.0 mi West 3.5 mph - N/A   Overcast
11:07 AM 66.2 °F 60.8 °F 83% 29.95 in 10.0 mi West 4.6 mph - N/A   Overcast
11:56 AM 66.9 °F 60.1 °F 79% 29.94 in 10.0 mi West 6.9 mph - N/A   Overcast
12:08 PM 66.2 °F 60.8 °F 83% 29.93 in 10.0 mi West 5.8 mph - N/A   Overcast
12:56 PM 69.1 °F 60.1 °F 73% 29.93 in 10.0 mi WNW 6.9 mph - N/A   Overcast
1:56 PM 70.0 °F 59.0 °F 68% 29.91 in 10.0 mi Variable 5.8 mph - N/A   Overcast
2:56 PM 70.0 °F 59.0 °F 68% 29.90 in 10.0 mi Variable 4.6 mph 16.1 mph N/A   Overcast
3:33 PM 71.6 °F 59.0 °F 64% 29.88 in 10.0 mi WSW 9.2 mph - N/A   Mostly Cloudy
3:56 PM 70.0 °F 57.9 °F 65% 29.88 in 10.0 mi WSW 8.1 mph - N/A   Mostly Cloudy
4:56 PM 68.0 °F 60.1 °F 76% 29.87 in 10.0 mi SW 12.7 mph - N/A   Mostly Cloudy
5:56 PM 66.0 °F 59.0 °F 78% 29.86 in 10.0 mi SW 10.4 mph - N/A   Mostly Cloudy
6:56 PM 63.0 °F 57.9 °F 84% 29.86 in 10.0 mi SW 8.1 mph - N/A   Scattered Clouds
7:56 PM 62.1 °F 57.9 °F 86% 29.87 in 10.0 mi WSW 5.8 mph - N/A   Mostly Cloudy
8:50 PM 62.6 °F 57.2 °F 82% 29.87 in 10.0 mi WSW 3.5 mph - N/A   Overcast
8:56 PM 62.1 °F 57.9 °F 86% 29.88 in 10.0 mi Variable 5.8 mph - N/A   Mostly Cloudy
9:56 PM 62.1 °F 55.9 °F 80% 29.91 in 10.0 mi NW 9.2 mph - N/A   Overcast
10:46 PM 60.8 °F 55.4 °F 82% 29.91 in 10.0 mi NW 8.1 mph 16.1 mph N/A   Overcast
10:56 PM 60.1 °F 55.0 °F 83% 29.91 in 10.0 mi NW 9.2 mph 17.3 mph N/A   Overcast
11:56 PM 57.9 °F 54.0 °F 87% 29.92 in 10.0 mi NW 10.4 mph 16.1 mph N/A   Overcast